Location: Unspecified
(34.4950°S, 58.5160°W)
Time: 14:33:35
(UTC+00:00)

BlueWalker 3 - Pass Details

Date: 21 February 2026
Orbit: 451 x 458 km, 53.2° (Epoch: 4 March)

Event Time Altitude Azimuth Distance (km) Brightness Sun altitude
Rises 23:59:10 0° 269° (W) 2,475 6.7 -15.9°
Reaches altitude 10° 00:02:13 10° 241° (WSW) 1,609 5.9 -16.5°
Maximum altitude 00:04:04 13° 210° (SSW) 1,414 5.0 -16.8°
Drops below altitude 10° 00:05:57 10° 179° (S) 1,619 4.8 -17.2°
Sets 00:09:02 0° 150° (SSE) 2,501 5.5 -17.7°
